logo
Search for airport 
image banner adimage banner adimage banner ad
image banner ad

CN44 - Flying Bull

Located in Modesto, United States

ICAO - CN44, IATA -

Data provided by Airmate  

General information

Coordinates: N37°37'14" W121°9'47"
Elevation is 40 feet MSL.
Magnetic variation is 15° East
View others Airports in California

Operational data

Special qualification required
Current time UTC:
Current local time:
METAR: KMOD 040653Z AUTO 29004KT 5SM BR CLR 07/07 A3021 RMK AO2 SLP230 T00720067
TAF: KMOD 062322Z 0700/0724 33010KT P6SM SKC FM070400 VRB04KT P6SM SKC TEMPO 0713/0716 3SM BR
View NOTAMs / SUP AIP / TFR affecting this airport [VIEW]
Communications frequencies: [VIEW]

Runways:

RWY identifierQFULength (ft)Width (ft)SurfaceLDA (ft)
021800100GRASS
201800100GRASS

Airport contact information

Address: Modesto United States

Satellite view of CN44